User: anonymous   Login
Location: Newark
(47.5783°N, 6.7622°E)
Time: 21:23:12
(UTC+00:00)
Language:

A-11 Canister half - Orbit

View from above orbital plane
View from above orbital plane
View from above satellite
View from above satellite

Ground track
Ground track

The orbit data is extracted from the following two-line orbital elements,

1    51U 60009C   20056.19302018 -.00000084 +00000-0 +89729-5 0  9991
2    51 047.2148 337.8176 0103996 186.8936 173.0425 12.18270491650286
Epoch (UTC): 25 February 2020 04:37:56
Eccentricity: 0.0103996
inclination: 47.2148°
perigee height: 1517 km
apogee height: 1683 km
right ascension of ascending node: 337.8176°
argument of perigee: 186.8936°
revolutions per day: 12.18270491
mean anomaly at epoch: 173.0425°
orbit number at epoch: 65028

The dashed part of the orbit path shows where the satellite is in the earth's shadow,  

DLR